Change the Weather History Date:

Thursday, June 20, 2013

  Actual Average Record
Temperature  
Mean Temperature 54 °F -  
Max Temperature 68 °F 71 °F 78 °F (1998)
Min Temperature 41 °F 42 °F 41 °F (2004)
Degree Days  
Heating Degree Days 10    
Growing Degree Days 4 (Base 50)    
Moisture  
Dew Point 41 °F    
Average Humidity 64    
Maximum Humidity 100    
Minimum Humidity 24    
Precipitation  
Precipitation 0.00 in 0.00 in - ()
Sea Level Pressure  
Sea Level Pressure 30.35 in    
Wind  
Wind Speed 6 mph ()    
Max Wind Speed 10 mph    
Max Gust Speed -    
Visibility 15.0 miles    
Events      
Averages and records for this station are not official NWS values.
T = Trace of Precipitation, MM = Missing Value Source: Averaged Metar Reports

Daily Weather History Graph

Daily Weather History Graph

Search for Another Location

Airport or City:

Trip Planner

Search our weather history database for the weather conditions in past years. The results will help you decide how hot, cold, wet, or windy it might be!

Date:

Astronomy

Jun. 20, 2013 Rise Set
Actual Time 6:25 AM CAT 5:28 PM CAT
Civil Twilight 6:01 AM CAT 5:52 PM CAT
Nautical Twilight 5:34 AM CAT 6:19 PM CAT
Astronomical Twilight 5:07 AM CAT 6:46 PM CAT
Moon 2:40 PM CAT (6/20) 2:55 AM CAT (6/20)
Length of Visible Light 11h 50m
Length of Day
11h 03m
Waxing Gibbous, 87% of the Moon is Illuminated
Jun 20
Waxing Gibbous
Jun 23
Full
Jun 30
Last Quarter
Jul 8
New
Jul 16
First Quarter

Hourly Weather History & Observations

Time (CAT) Temp. Windchill Dew Point Humidity Pressure Visibility Wind Dir Wind Speed Gust Speed Precip Events Conditions
12:00 AM 44.6 °F 40.7 °F 41.0 °F 87% 30.33 in - East 6.9 mph - N/A   Clear
2:00 AM 42 °F - 40 °F 90%  in 19 mi East 6.9 mph - -  
2:00 AM 41.0 °F 36.4 °F 41.0 °F 100% 30.33 in - East 6.9 mph - N/A   Clear
5:00 AM 41.0 °F 37.1 °F 41.0 °F 100% 30.30 in - East 5.8 mph - N/A   Clear
6:00 AM 41.0 °F 36.4 °F 41.0 °F 100% 30.33 in - East 6.9 mph - N/A   Clear
7:00 AM 42.8 °F 39.3 °F 42.8 °F 100% 30.36 in - East 5.8 mph - N/A   Clear
8:00 AM 51 °F - 47 °F 83%  in 12 mi East 6.9 mph - -   Haze
8:00 AM 51.8 °F - 48.2 °F 88% 30.36 in - East 6.9 mph - N/A   Clear
9:00 AM 55.4 °F - 44.6 °F 67% 30.39 in - ENE 10.4 mph - N/A   Clear
10:00 AM 59.0 °F - 42.8 °F 55% 30.42 in 6.2 mi NE 9.2 mph - N/A   Partly Cloudy
11:00 AM - - - N/A% 30.39 in - East 8.1 mph - N/A   Clear
12:00 PM 64.4 °F - 41.0 °F 42% 30.36 in - East 8.1 mph - N/A   Clear
1:00 PM 66.2 °F - 41.0 °F 40% 30.36 in - Variable 8.1 mph - N/A   Clear
2:00 PM 68 °F - 39 °F 24%  in 19 mi ENE 8.1 mph - -  
2:00 PM 68.0 °F - 39.2 °F 35% 30.33 in - ENE 8.1 mph - N/A   Clear
3:00 PM 68.0 °F - 39.2 °F 35% 30.30 in - East 6.9 mph - N/A   Clear
4:00 PM 68.0 °F - 39.2 °F 35% 30.33 in - NE 9.2 mph - N/A   Clear
5:00 PM 64.4 °F - 39.2 °F 40% 30.33 in - ENE 9.2 mph - N/A   Clear
6:00 PM 59.0 °F - 39.2 °F 48% 30.36 in - ENE 8.1 mph - N/A   Clear
7:00 PM 55.4 °F - 39.2 °F 54% 30.36 in - ENE 8.1 mph - N/A   Clear
8:00 PM 51 °F - 40 °F 55%  in 19 mi East 4.6 mph - -  
8:00 PM 51.8 °F - 39.2 °F 62% 30.39 in - East 4.6 mph - N/A   Clear
9:00 PM 50.0 °F - 41.0 °F 71% 30.39 in - East 5.8 mph - N/A   Clear